When you browse on this site, cookies collect data to enhance your experience and personalize the content and advertising you see.
Visit our Privacy Policy to learn more. By continuing to use the site, you agree to this use of cookies and data.
  • In Spain
  • List of Countries
  • For 7 days
  • Water Temperature
  • Weather Map
  • Weather Widgets
  • user-avatar
    Login

    Hourly Weather Paro

    Today, 31 May, Sunday

    Time Temperature Precipitation Wind Pressure Humidity
    00:00 +11°C° 0 mm 0 mps 561 mmHg 94%
    01:00 +11°C° 0 mm 0 mps 561 mmHg 94%
    02:00 +11°C° 0 mm 0 mps 561 mmHg 94%
    03:00 +12°C° 0 mm 0 mps 561 mmHg 93%
    04:00 +12°C° 0 mm 0 mps 561 mmHg 93%
    05:00 +12°C° 0 mm 0 mps 561 mmHg 92%
    06:00 +12°C° 0 mm 0 mps 562 mmHg 92%
    07:00 +13°C° 0.2 mm 0 mps 562 mmHg 93%
    08:00 +14°C° 0.2 mm 1 mps 562 mmHg 93%
    09:00 +14°C° 0.2 mm 1 mps 563 mmHg 93%
    10:00 +15°C° 0.4 mm 1 mps 563 mmHg 92%
    11:00 +15°C° 0.4 mm 1 mps 563 mmHg 90%
    12:00 +17°C° 0 mm 2 mps 563 mmHg 87%
    13:00 +17°C° 0.6 mm 2 mps 563 mmHg 86%
    14:00 +17°C° 0.6 mm 2 mps 562 mmHg 86%
    15:00 +17°C° 0.6 mm 2 mps 562 mmHg 85%
    16:00 +17°C° 0.4 mm 2 mps 561 mmHg 88%
    17:00 +16°C° 0.4 mm 1 mps 561 mmHg 91%
    18:00 +16°C° 0.4 mm 1 mps 561 mmHg 93%
    19:00 +15°C° 0.1 mm 1 mps 561 mmHg 94%
    20:00 +14°C° 0.1 mm 1 mps 561 mmHg 95%
    21:00 +13°C° 0.1 mm 0 mps 561 mmHg 97%
    22:00 +13°C° 0 mm 0 mps 561 mmHg 96%
    23:00 +12°C° 0 mm 0 mps 561 mmHg 95%

    Tomorrow, 1 June, Monday

    Time Temperature Precipitation Wind Pressure Humidity
    00:00 +12°C° 0 mm 0 mps 561 mmHg 94%
    01:00 +12°C° 0.1 mm 0 mps 561 mmHg 95%
    02:00 +12°C° 0.1 mm 0 mps 561 mmHg 96%
    03:00 +12°C° 0.1 mm 0 mps 560 mmHg 97%
    04:00 +12°C° 0.2 mm 0 mps 560 mmHg 97%
    05:00 +12°C° 0.2 mm 0 mps 560 mmHg 97%
    06:00 +12°C° 0.2 mm 0 mps 561 mmHg 98%
    07:00 +14°C° 0.2 mm 1 mps 561 mmHg 93%
    08:00 +16°C° 0.2 mm 1 mps 562 mmHg 89%
    09:00 +17°C° 0.2 mm 2 mps 563 mmHg 85%
    10:00 +18°C° 0.4 mm 2 mps 563 mmHg 81%
    11:00 +19°C° 0.4 mm 2 mps 563 mmHg 76%
    12:00 +19°C° 0.4 mm 3 mps 563 mmHg 72%
    13:00 +19°C° 0.4 mm 3 mps 563 mmHg 72%
    14:00 +19°C° 0.4 mm 3 mps 562 mmHg 72%
    15:00 +19°C° 0.4 mm 3 mps 562 mmHg 73%
    16:00 +18°C° 0.3 mm 2 mps 561 mmHg 77%
    17:00 +17°C° 0.3 mm 2 mps 561 mmHg 81%
    18:00 +16°C° 0.3 mm 2 mps 560 mmHg 85%
    19:00 +15°C° 0.1 mm 1 mps 560 mmHg 88%
    20:00 +13°C° 0.1 mm 1 mps 559 mmHg 90%
    21:00 +11°C° 0.1 mm 0 mps 559 mmHg 93%
    22:00 +12°C° 0 mm 1 mps 559 mmHg 93%
    23:00 +12°C° 0 mm 1 mps 559 mmHg 93%

    Day after tomorrow, 2 June, Tuesday

    Time Temperature Precipitation Wind Pressure Humidity
    00:00 +12°C° 0 mm 1 mps 559 mmHg 94%
    01:00 +11°C° 0 mm 1 mps 559 mmHg 92%
    02:00 +11°C° 0 mm 1 mps 559 mmHg 91%
    03:00 +11°C° 0 mm 1 mps 559 mmHg 90%
    04:00 +11°C° 0 mm 1 mps 559 mmHg 88%
    05:00 +12°C° 0 mm 1 mps 559 mmHg 87%
    06:00 +12°C° 0 mm 1 mps 559 mmHg 86%
    07:00 +14°C° 0 mm 1 mps 561 mmHg 78%
    08:00 +18°C° 0 mm 1 mps 562 mmHg 71%
    09:00 +19°C° 0 mm 2 mps 563 mmHg 64%
    10:00 +19°C° 0.3 mm 2 mps 563 mmHg 66%
    11:00 +19°C° 0.3 mm 2 mps 563 mmHg 68%
    12:00 +20°C° 0.3 mm 2 mps 562 mmHg 71%
    13:00 +19°C° 0.5 mm 2 mps 562 mmHg 74%
    14:00 +19°C° 0.5 mm 2 mps 561 mmHg 78%
    15:00 +18°C° 0.5 mm 2 mps 560 mmHg 82%
    16:00 +18°C° 0.2 mm 2 mps 560 mmHg 84%
    17:00 +17°C° 0.2 mm 2 mps 559 mmHg 86%
    18:00 +16°C° 0.2 mm 1 mps 559 mmHg 87%
    19:00 +15°C° 0.1 mm 1 mps 559 mmHg 90%
    20:00 +14°C° 0.1 mm 1 mps 559 mmHg 93%
    21:00 +13°C° 0.1 mm 1 mps 559 mmHg 95%
    22:00 +13°C° 0 mm 1 mps 559 mmHg 94%
    23:00 +12°C° 0 mm 1 mps 559 mmHg 93%

    3 June, Wednesday

    Time Temperature Precipitation Wind Pressure Humidity
    00:00 +12°C° 0 mm 1 mps 559 mmHg 92%
    01:00 +12°C° 0 mm 1 mps 558 mmHg 92%
    02:00 +12°C° 0 mm 1 mps 558 mmHg 92%
    03:00 +11°C° 0 mm 1 mps 558 mmHg 92%
    04:00 +12°C° 0 mm 1 mps 558 mmHg 90%
    05:00 +12°C° 0 mm 1 mps 559 mmHg 88%
    06:00 +12°C° 0 mm 1 mps 559 mmHg 86%
    07:00 +15°C° 0 mm 1 mps 560 mmHg 79%
    08:00 +18°C° 0 mm 1 mps 561 mmHg 72%
    09:00 +19°C° 0 mm 2 mps 563 mmHg 65%
    10:00 +19°C° 0.3 mm 2 mps 563 mmHg 67%
    11:00 +19°C° 0.3 mm 2 mps 562 mmHg 69%
    12:00 +20°C° 0.3 mm 2 mps 562 mmHg 72%
    13:00 +19°C° 0.6 mm 2 mps 561 mmHg 76%
    14:00 +18°C° 0.6 mm 2 mps 561 mmHg 81%
    15:00 +18°C° 0.6 mm 2 mps 560 mmHg 86%
    16:00 +17°C° 0.3 mm 2 mps 559 mmHg 88%
    17:00 +16°C° 0.3 mm 1 mps 559 mmHg 89%
    18:00 +16°C° 0.3 mm 1 mps 558 mmHg 91%
    19:00 +15°C° 0 mm 1 mps 558 mmHg 93%
    20:00 +13°C° 0 mm 0 mps 558 mmHg 94%
    21:00 +13°C° 0 mm 0 mps 559 mmHg 96%
    22:00 +12°C° 0 mm 0 mps 559 mmHg 96%
    23:00 +12°C° 0 mm 0 mps 559 mmHg 95%

    4 June, Thursday

    Time Temperature Precipitation Wind Pressure Humidity
    00:00 +12°C° 0 mm 0 mps 559 mmHg 95%
    01:00 +12°C° 0 mm 0 mps 559 mmHg 95%
    02:00 +13°C° 0 mm 1 mps 559 mmHg 94%
    03:00 +13°C° 0 mm 1 mps 559 mmHg 94%
    04:00 +13°C° 0 mm 1 mps 559 mmHg 93%
    05:00 +13°C° 0 mm 1 mps 559 mmHg 93%
    06:00 +13°C° 0 mm 1 mps 559 mmHg 92%
    07:00 +15°C° 0.1 mm 1 mps 560 mmHg 86%
    08:00 +18°C° 0.1 mm 1 mps 562 mmHg 80%
    09:00 +19°C° 0.1 mm 2 mps 563 mmHg 74%
    10:00 +20°C° 0.2 mm 2 mps 563 mmHg 72%
    11:00 +20°C° 0.2 mm 2 mps 563 mmHg 69%
    12:00 +21°C° 0.2 mm 2 mps 563 mmHg 67%
    13:00 +21°C° 0.3 mm 2 mps 562 mmHg 70%
    14:00 +21°C° 0.3 mm 2 mps 561 mmHg 72%
    15:00 +21°C° 0.3 mm 2 mps 561 mmHg 75%
    16:00 +20°C° 0.2 mm 2 mps 560 mmHg 79%
    17:00 +19°C° 0.2 mm 2 mps 559 mmHg 83%
    18:00 +18°C° 0.2 mm 2 mps 559 mmHg 88%
    19:00 +18°C° 0 mm 1 mps 559 mmHg 91%
    20:00 +15°C° 0 mm 1 mps 559 mmHg 94%
    21:00 +14°C° 0 mm 1 mps 559 mmHg 97%
    22:00 +15°C° 0 mm 1 mps 559 mmHg 96%
    23:00 +15°C° 0 mm 1 mps 560 mmHg 96%

    5 June, Friday

    Time Temperature Precipitation Wind Pressure Humidity
    00:00 +15°C° 0 mm 1 mps 560 mmHg 96%
    01:00 +15°C° 0 mm 1 mps 560 mmHg 96%
    02:00 +15°C° 0 mm 1 mps 560 mmHg 97%
    03:00 +15°C° 0 mm 1 mps 559 mmHg 97%
    04:00 +15°C° 0 mm 1 mps 559 mmHg 97%
    05:00 +15°C° 0 mm 1 mps 560 mmHg 96%
    06:00 +14°C° 0 mm 0 mps 560 mmHg 95%
    07:00 +18°C° 0 mm 1 mps 561 mmHg 87%
    08:00 +20°C° 0 mm 1 mps 562 mmHg 80%
    09:00 +20°C° 0 mm 2 mps 563 mmHg 73%
    10:00 +21°C° 0.3 mm 2 mps 563 mmHg 73%
    11:00 +21°C° 0.3 mm 2 mps 563 mmHg 73%
    12:00 +23°C° 0.3 mm 2 mps 563 mmHg 73%
    13:00 +23°C° 0.4 mm 2 mps 562 mmHg 72%
    14:00 +23°C° 0.4 mm 2 mps 562 mmHg 72%
    15:00 +23°C° 0.4 mm 2 mps 561 mmHg 72%
    16:00 +21°C° 0.2 mm 2 mps 561 mmHg 77%
    17:00 +20°C° 0.2 mm 2 mps 560 mmHg 81%
    18:00 +19°C° 0.2 mm 2 mps 559 mmHg 86%
    19:00 +18°C° 0.1 mm 2 mps 559 mmHg 90%
    20:00 +18°C° 0.1 mm 1 mps 559 mmHg 94%
    21:00 +16°C° 0.1 mm 1 mps 559 mmHg 98%
    22:00 +16°C° 0.1 mm 1 mps 559 mmHg 97%
    23:00 +16°C° 0.1 mm 1 mps 559 mmHg 97%
    Show more